sat.trackr.live / text

‹ back to catalog

STARLINK-35021

NORAD 65282 · 2025-184K

PAYLOAD ACTIVE UNKNOWN

§ Identity

Operator
Country
US
Launch date
2025-08-22
Launch site
AFWTR
Launch vehicle
Mass (kg)
RCS (m²)

Purposes: comms

External: N2YO · Heavens-Above · Gunter

§ Orbital elements

Epoch: 2026-09-20T13:51:48.990240Z

Period
93.91 min
Inclination
97.2849°
Eccentricity
0.0000929
Mean motion
15.33452882 rev/d
Perigee alt
464.9 km
Apogee alt
466.2 km
Semi-major
6,843.7 km
B*
5.1772e-4
RAAN
311.5051°
Arg perigee
107.8922°
Mean anomaly
252.2422°
Rev number
6,068

§ Raw data

STARLINK-350211 65282U 25184K   26263.57765035  .00016680  00000+0  51772-3 0  99952 65282  97.2849 311.5051 0000929 107.8922 252.2422 15.33452882 60689

JSON: /api/v1/satellites/65282 · /tle

For live sub-satellite position, see the globe view (requires WebGL).

§ Visibility from observer

Set your observer location to see the next 7 days of passes ≥ 10°. The values pass through the URL so the page stays shareable.

No JS? Fill the form by hand. The geolocation button needs JavaScript.